Regional Weather Roundup
Issued by NWS Mt. Holly, NJ

Home | Current Version | Previous Version | Text Only | Print | Product List | Glossary On
Versions: 1 2 3 4 5 6 7 8 9 10 11 12 13 14 15 16 17 18 19 20 21 22 23 24 25 26 27 28 29 30 31 32 33 34 35 36 37 38 39 40 41 42 43 44 45 46 47 48 49 50
000
ASUS41 KPHI 280110
RWRPHI

REGIONAL WEATHER ROUNDUP
NATIONAL WEATHER SERVICE MOUNT HOLLY NJ
800 PM EST THU NOV 27 2014

NOTE:  "FAIR" INDICATES FEW OR NO CLOUDS BELOW 12,000 FEET WITH NO
SIGNIFICANT WEATHER AND/OR OBSTRUCTIONS TO VISIBILITY.

 * = STATION DOES NOT REPORT PRECIPITATION (E.G. RAIN, SNOW, ETC.)
        OR FOG.

NJZ015>026-280200-
SOUTHERN NEW JERSEY

CITY           SKY/WX    TMP DP  RH WIND       PRES   REMARKS
POMONA         CLEAR     33  28  81 W7        30.09R WCI  27
RIO GRANDE*    CLEAR     37  27  65 NW6       30.08S WCI  33
MILLVILLE      CLEAR     30  26  85 NW6       30.10R WCI  24
WRIGHTSTOWN    PTCLDY    34  28  79 W6        30.05R WCI  28
MOUNT HOLLY    CLEAR     34  27  75 W7        30.09R WCI  28
TRENTON        CLEAR     33  27  78 W6        30.07R WCI  28

$$
NJZ001>014-280200-
NORTHERN NEW JERSEY

CITY           SKY/WX    TMP DP  RH WIND       PRES   REMARKS
SUSSEX         CLOUDY    32  24  72 CALM      30.04R
ANDOVER*         N/A     31  24  75 CALM      30.04R
MORRISTOWN     MOCLDY    36  27  69 NW6       30.06R WCI  31
NEWARK         CLOUDY    36  29  75 W10       30.06R WCI  28
TETERBORO      CLOUDY    36  27  69 NW7       30.04R WCI  30
CALDWELL       CLOUDY    34  25  69 NW5       30.05R WCI  30
SOMERVILLE     CLEAR     31  24  75 NW3       30.06R
TOMS RIVER*    CLEAR     28  27  93 CALM      30.08R

$$
PAZ043-044-047-054-055-060>062-066>071-280200-
EASTERN PENNSYLVANIA

CITY           SKY/WX    TMP DP  RH WIND       PRES   REMARKS
PHILADELPHIA   CLEAR     36  26  67 W7        30.11R WCI  30
NORTH PHILA    CLEAR     34  25  69 NW7       30.10R WCI  28
BLUE BELL      CLEAR     34  28  80 CALM      30.07S
DOYLESTOWN     CLEAR     30  27  88 W3        30.07R
QUAKERTOWN*    CLEAR     28  27  93 CALM      30.08R
POTTSTOWN      CLEAR     30  25  81 CALM      30.10R
LANCASTER      PTCLDY    31  27  85 W3        30.09S
COATESVILLE    CLEAR     30  28  93 W3        30.09R
READING        CLEAR     31  25  78 CALM      30.08S
ALLENTOWN      CLEAR     30  24  78 W6        30.08R WCI  24
MOUNT POCONO   FAIR      24  19  81 NW7       29.97R WCI  16
HAZLETON       CLEAR     28  23  80 W9        30.04S WCI  20
WILKES BARRE   CLEAR     27  19  72 W9        30.05R WCI  18

$$
DEZALL-MDZ008-012-015-019-020-280200-
DELAWARE AND EASTERN MARYLAND

CITY           SKY/WX    TMP DP  RH WIND       PRES   REMARKS
WILMINGTON     PTCLDY    33  27  78 W7        30.12R WCI  27
DOVER          CLEAR     33  28  83 NW8       30.09R WCI  26
GEORGETOWN     CLEAR     36  27  69 NW5       30.12R WCI  32
PATUXENT       MOCLDY    40  29  64 NW13      30.13R WCI  32
OCEAN CITY     CLEAR     35  29  78 NW3       30.10R
WALLOPS ISLAND CLEAR     35  32  88 NW5       30.12R WCI  31
CAMBRIDGE      MOCLDY    36  34  93 CALM      30.12R
SALISBURY      PTCLDY    36  30  79 NW6       30.11R WCI  31

$$
PAZ001-021-NYZ056-072-MDZ011-DCZ001-280200-
OTHER NEARBY LOCATIONS

CITY           SKY/WX    TMP DP  RH WIND       PRES   REMARKS
HARRISBURG     PTCLDY    32  29  88 NW6       30.10R WCI  26
STATE COLLEGE  CLOUDY    32  27  80 W9        30.08R WCI  24
WILLIAMSPORT   CLOUDY    31  27  85 CALM      30.08R
BINGHAMTON     PTCLDY    23  21  92 W3        30.00S
NEW YORK CITY  CLOUDY    37  26  64 VRB5      30.06R WCI  33
BALTIMORE      PTCLDY    35  28  75 W3        30.12R
WASHINGTON DC  PTCLDY    40  27  59 W6        30.16R

$$


USA.gov is the U.S. government's official web portal to all federal, state and local government web resources and services.